Dewpoint
-8 -4 -1 -3 1 -1 -1 -1 -1 -4 -6 -4 -4 -4 -5 -6 -7 -6 -6 -6 -6 -6 -6 2 4 8 8 8 7 9 11 10 11 10 10 12 10 12 15 12 11 12 12 13
-5 -4 -8 -6 -2 -0 -0 0 -0 -3 -5 -5 -5 -5 -6 -6 -7 -6 -6 -6 -6 -6 -6 -6 -4 -3 -2 2 7 8 10 11 11 11 9 12 13 13 12 12 12 11 12 13
-2 -5 -6 -5 -2 -1 -1 -0 -1 -1 -3 -4 -4 -3 -4 -5 -6 -7 -7 -7 -6 -6 -6 -6 -6 -5 -3 -2 2 6 7 9 11 12 12 11 14 13 13 12 12 13 13 13
-2 -4 -4 -6 -4 -3 -1 -4 -3 -3 -3 -2 -4 -1 -5 -5 -5 -6 -7 -7 -6 -6 -6 -6 -6 -5 -4 -4 -3 -1 6 7 11 12 11 7 7 9 9 10 11 14 14 13
1 -1 -1 -1 -5 -7 -3 -5 -4 -4 -3 -3 -3 -2 -4 -5 -4 -5 -6 -7 -7 -8 -7 -7 -7 -7 -6 -5 -3 -1 4 8 10 12 11 9 8 8 9 11 13 13 14 14
2 0 1 -1 -2 -2 -2 -1 -4 -4 -4 -0 -2 -3 -4 -5 -6 -6 -6 -7 -7 -8 -8 -8 -9 -7 -7 -6 -3 1 4 6 9 12 12 11 9 9 10 12 13 13 13 13
2 1 -1 -1 -0 -2 -1 1 3 3 4 1 -4 -3 -4 -6 -7 -7 -8 -8 -7 -8 -8 -9 -9 -8 -7 -6 -2 2 4 6 10 12 13 12 11 10 10 10 12 13 13 12
5 5 1 -1 -1 -1 -1 0 6 9 7 3 -1 2 -3 -7 -6 -5 -4 -7 -8 -8 -7 -8 -8 -9 -9 -7 -3 1 4 7 10 12 13 13 13 12 12 11 12 13 13 12
6 5 -0 -1 -2 -1 1 2 -1 2 3 6 3 2 -0 -2 -2 -4 -4 -4 -5 -7 -7 -5 -4 -5 -6 -7 -3 -4 3 7 9 11 13 14 14 13 13 12 12 13 13 11
3 5 0 0 -0 -0 1 0 5 3 6 7 5 7 6 1 -0 -2 -3 -4 -3 -3 -3 -3 -3 -4 -4 -4 -3 -3 3 4 5 11 13 14 14 14 13 13 13 12 13 11
-1 4 2 2 3 4 3 4 3 3 5 10 9 5 1 1 0 -0 -1 -3 -4 -3 -2 -2 -1 -4 -5 -3 1 -1 5 8 10 13 15 13 14 13 13 13 13 12 12 10
-1 3 6 3 -0 -0 1 1 5 7 8 9 10 8 2 1 1 -0 -0 -1 -1 -1 -1 -1 -1 -1 -3 -2 1 2 5 8 10 14 15 14 13 13 13 13 13 12 11 10
-4 2 2 -1 -1 2 5 -0 3 5 7 8 9 9 2 3 4 3 2 1 0 -1 -1 -1 -1 1 -0 -0 4 6 6 8 12 15 15 14 13 12 12 13 13 11 10 8
-1 1 1 1 -1 -2 0 -0 0 2 6 4 3 1 -1 -0 -1 1 3 2 1 -0 -1 -1 -2 2 7 4 3 4 6 9 11 13 14 13 14 13 13 13 13 11 9 7
-1 1 0 -0 -0 -0 0 1 0 1 1 4 1 0 -2 -3 -3 -1 0 2 2 1 -0 -1 -1 1 4 7 8 7 7 8 11 13 14 13 14 13 13 13 13 11 6 6
-0 2 1 1 -1 -1 0 -1 -1 -1 0 3 2 2 -1 -2 -3 -3 -1 -0 0 1 -0 -1 -1 1 6 7 7 7 9 10 11 14 14 14 14 13 13 12 10 6 6 4
1 1 2 3 -0 0 2 -2 -2 -1 -1 0 1 -2 -6 -2 -2 -2 -3 -2 -1 -1 -1 -0 -1 -0 -0 3 6 7 8 10 13 14 14 14 13 13 12 10 7 7 5 4
1 1 2 3 2 3 -2 -4 -4 -3 -3 -4 -5 -5 -5 -4 -4 -5 -4 1 4 4 2 -0 -1 -0 1 2 6 7 6 8 11 13 14 13 13 12 10 9 7 5 2 1
-0 1 2 3 2 -1 -2 -4 -4 -4 -4 -6 -6 -6 -7 -4 3 2 4 1 2 4 4 4 3 2 -1 1 1 6 8 9 11 12 13 12 11 10 9 7 5 2 1 2
0 1 2 -0 3 2 -4 -7 -8 -5 -0 -5 -6 -7 4 2 4 1 0 3 1 2 4 3 3 2 3 -0 -0 6 8 7 9 11 11 10 8 7 7 5 3 2 3 2
1 1 3 3 3 1 -3 -5 -5 0 -1 -6 -2 1 1 1 -1 -2 3 4 2 2 2 3 2 2 2 1 -1 4 8 8 8 9 8 7 7 5 5 3 2 3 1 -2
-1 -0 1 1 2 2 -5 -2 -0 -3 -6 -5 -4 -3 -3 -3 -1 2 2 3 4 3 1 2 2 3 3 1 -1 3 6 7 9 8 7 6 5 4 3 3 2 -0 -3 -3
-0 -2 -2 -1 -1 -4 -6 -5 -6 -5 -3 -3 -2 -3 -3 -1 3 -1 -2 -3 1 4 3 2 2 3 4 2 0 0 5 7 7 7 6 5 4 3 3 3 1 -1 -4 -3
-2 -4 -1 -2 -3 -4 -4 -5 -6 -6 -5 -4 -3 -5 -4 -3 -2 -3 -4 -2 1 4 4 3 1 3 4 3 5 6 6 6 6 5 4 3 2 2 2 1 -0 -3 -2 -0
-2 -2 -1 -1 -3 -4 -4 -4 -5 -5 -5 -5 -4 -4 -3 -3 -3 -3 -3 -2 -0 0 2 4 3 4 4 6 7 7 5 4 3 2 2 2 1 1 1 -0 -2 -1 -0 0
-1 -1 -0 -1 -3 -3 -4 -5 -5 -5 -4 -4 -3 -3 -3 -3 -4 -4 -1 0 0 1 3 4 4 5 6 3 6 5 4 3 3 2 1 1 1 0 -0 -0 -1 -0 0 -0
Wind_Speed
8 4 12 18 14 2 4 6 9 4 5 6 11 12 11 23 17 21 33 40 31 24 30 45 45 49 49 50 47 50 50 46 43 42 42 43 41 37 33 30 27 31 29 28
1 17 17 6 8 9 9 13 22 15 7 8 17 20 15 10 14 19 25 33 33 23 27 32 35 43 39 44 51 53 53 51 48 45 42 44 44 41 35 32 31 31 29 30
11 6 11 9 8 10 14 17 18 16 8 13 12 20 17 12 11 24 25 28 39 31 32 31 30 33 38 44 47 52 53 54 52 49 45 46 44 38 36 37 36 35 34 33
10 19 15 10 15 15 17 16 18 17 9 11 7 15 20 8 10 8 24 23 27 32 31 28 28 36 34 36 39 47 54 55 55 52 48 48 49 47 45 43 39 37 36 36
8 3 8 14 22 12 15 15 16 16 14 9 11 4 23 5 6 8 9 26 28 30 33 37 40 37 38 40 42 44 53 59 58 56 50 47 49 46 44 45 40 38 38 36
8 15 7 4 8 8 12 13 13 9 8 11 22 8 25 18 16 9 8 24 29 36 35 34 36 44 47 46 44 47 54 57 61 57 53 49 49 48 47 45 44 41 37 38
7 14 10 12 10 10 4 6 6 6 9 17 15 9 23 4 9 17 19 28 34 38 42 42 42 36 40 45 46 49 52 55 64 58 56 52 51 48 46 45 46 45 41 43
2 7 3 3 7 7 11 5 4 11 7 14 15 13 20 19 11 13 23 32 36 39 39 46 47 43 49 45 48 50 53 57 63 61 59 54 52 48 45 45 45 46 44 44
4 7 3 5 9 4 1 9 13 11 13 10 10 9 13 27 27 27 30 27 32 39 37 36 37 38 48 48 48 51 54 58 62 64 60 57 54 50 47 44 45 44 43 43
6 14 8 7 8 9 7 3 3 3 10 18 12 10 12 20 10 14 23 31 32 28 35 37 49 44 42 42 49 53 54 56 56 63 62 58 54 50 46 44 46 45 42 41
5 3 7 3 5 3 5 2 3 5 3 4 6 7 13 26 19 21 21 34 41 32 38 39 43 44 45 33 49 52 55 55 57 59 62 52 52 51 48 47 46 47 43 42
4 4 6 9 11 16 14 15 3 3 4 4 4 8 13 19 20 19 21 27 32 34 42 39 47 42 44 32 42 50 51 55 56 54 56 55 51 50 48 49 49 48 45 43
8 3 6 12 3 5 4 4 1 2 3 4 7 3 14 20 23 32 33 39 41 42 47 42 46 43 35 34 40 42 48 51 53 48 52 54 50 49 48 50 50 49 48 45
16 8 10 13 9 6 16 16 12 10 4 7 11 19 25 32 18 24 34 36 37 35 39 43 48 34 24 32 35 39 43 48 53 52 50 49 50 51 47 45 50 52 51 50
2 4 5 11 8 6 11 15 16 13 17 14 24 18 22 26 21 18 33 36 38 33 37 43 41 32 27 30 34 37 43 46 47 46 48 51 48 43 44 45 52 52 51 51
3 6 4 20 15 11 15 18 18 18 19 14 20 23 19 34 37 20 25 31 31 33 41 41 32 24 22 28 31 35 41 42 44 46 47 46 45 44 45 48 50 51 49 49
6 4 3 20 13 13 14 14 12 15 17 15 17 19 21 17 21 20 24 32 33 34 35 38 42 32 34 41 36 36 37 41 43 43 45 45 45 45 47 47 48 47 50 49
11 7 5 14 9 20 10 4 7 14 17 17 19 19 20 17 30 35 29 26 29 36 35 37 35 35 36 42 46 39 39 40 44 45 46 46 46 48 48 48 48 52 50 44
19 13 8 10 14 18 21 23 17 14 22 15 18 19 26 23 26 14 15 33 37 43 44 41 39 37 37 37 41 44 44 44 48 51 49 48 47 47 49 51 54 54 49 38
9 12 9 1 7 11 18 27 7 5 10 9 12 18 5 11 9 11 29 35 36 39 43 45 45 41 39 40 39 47 53 51 53 54 53 49 48 48 49 52 53 51 44 36
3 2 14 12 10 9 18 20 5 7 17 28 16 15 14 8 10 31 33 34 34 34 39 43 41 41 43 41 39 47 50 53 54 54 53 48 46 48 50 53 53 46 41 40
7 5 5 3 8 13 16 7 11 20 29 24 22 25 22 24 26 27 36 36 40 44 36 35 42 41 41 42 43 49 53 50 55 55 52 49 49 52 53 54 49 47 43 38
7 13 7 9 7 9 14 17 23 18 14 26 20 29 33 29 23 28 37 40 46 38 34 35 37 49 44 41 47 49 51 52 54 54 54 53 52 54 53 55 54 48 42 40
8 9 8 10 21 26 30 35 39 41 37 38 35 41 42 39 34 36 38 39 40 34 35 34 36 50 44 33 39 44 45 48 53 56 55 53 55 55 54 56 53 48 44 40
7 5 11 16 23 24 33 38 41 42 42 40 38 39 36 31 37 37 38 41 40 40 40 26 27 38 24 16 29 34 39 45 49 51 51 51 52 54 53 50 49 44 38 38
23 24 9 13 17 10 25 33 35 38 39 40 38 39 38 40 44 40 38 42 43 42 39 32 21 30 26 15 24 29 36 45 50 47 45 48 52 48 45 46 37 32 30 29
Wind_Direction
182 168 215 214 211 237 266 275 253 274 254 263 261 278 271 275 273 256 253 251 250 261 243 222 225 225 222 224 228 229 222 220 217 215 215 215 218 220 223 223 222 214 221 225
191 224 223 233 177 222 228 241 260 277 269 263 279 280 268 255 265 261 264 251 242 235 227 227 231 233 224 226 227 227 228 221 221 218 219 220 218 217 221 220 218 218 222 226
218 207 221 207 209 223 229 231 252 253 269 268 280 280 276 265 248 267 271 271 261 237 237 241 236 233 234 230 228 227 229 231 222 220 216 219 219 217 214 219 218 219 222 230
237 250 259 246 235 213 239 234 250 255 258 256 162 271 273 267 258 240 263 262 261 244 246 246 245 240 237 237 237 235 228 230 223 221 216 218 216 212 216 214 214 215 221 227
213 179 232 245 246 240 250 257 259 260 254 267 251 244 267 201 252 260 243 262 269 260 257 254 257 249 248 248 240 235 229 226 225 219 218 216 214 216 216 214 212 217 222 222
265 286 277 224 310 311 312 304 263 268 251 247 256 235 274 258 256 259 262 264 265 274 282 284 273 263 254 248 240 229 227 226 226 218 218 217 214 213 214 215 211 216 219 215
310 273 276 275 293 301 242 286 280 260 254 254 256 241 260 266 250 250 257 266 268 270 278 279 273 275 271 255 233 226 227 225 224 219 219 217 216 218 219 217 213 214 214 210
267 312 171 240 210 256 248 232 209 243 248 260 255 239 249 266 269 284 309 283 274 280 285 281 278 272 280 271 242 228 225 222 222 220 220 219 218 219 222 223 218 217 219 214
235 250 227 268 292 223 359 239 262 274 262 262 252 279 264 266 268 272 276 292 281 273 277 296 298 291 281 271 247 238 225 222 223 221 218 217 220 221 222 223 221 224 221 215
325 286 250 324 297 273 216 189 292 277 272 261 244 234 249 265 289 262 263 265 276 286 300 306 309 293 295 274 248 234 226 225 228 223 219 217 223 224 226 225 221 222 219 216
305 325 327 330 212 359 334 239 227 249 222 246 269 259 238 259 265 267 265 267 271 282 295 300 315 289 290 281 237 223 221 220 222 221 216 221 224 224 225 227 224 220 216 214
294 267 278 258 262 261 260 280 4 235 268 254 257 270 294 303 307 306 308 304 296 302 299 304 320 298 281 262 232 222 217 219 222 219 217 218 222 223 226 224 222 221 213 215
311 280 311 313 6 21 99 326 319 197 234 255 305 302 305 310 304 304 303 302 297 294 292 294 308 311 280 232 217 216 216 219 219 212 217 218 222 224 226 222 222 218 214 215
305 236 229 258 253 287 291 295 291 270 221 269 262 283 289 299 300 303 295 290 292 291 293 298 304 292 246 218 215 214 215 218 219 218 219 222 223 224 223 224 221 218 216 210
163 260 273 283 302 282 283 282 280 264 265 263 285 274 274 275 293 293 302 299 295 295 293 290 295 284 251 228 220 215 218 219 220 220 221 223 225 221 219 220 219 217 211 208
233 266 259 285 294 291 286 267 268 272 270 261 260 268 261 268 285 301 294 297 294 294 295 291 291 295 273 259 236 225 220 219 220 220 219 219 218 215 216 216 212 205 205 201
244 257 277 278 297 305 281 269 247 257 250 256 259 268 283 279 289 289 301 307 299 296 294 290 294 299 282 271 247 239 228 224 220 218 217 219 213 216 213 211 207 205 199 194
241 219 231 266 300 270 268 223 265 272 258 259 268 273 274 272 282 287 297 300 330 329 322 311 302 295 288 281 252 237 238 234 224 219 216 215 215 212 209 208 206 200 194 191
218 222 243 247 251 273 293 279 257 255 273 270 271 275 277 299 305 320 330 330 326 319 314 315 306 299 294 266 265 255 233 229 221 218 216 216 214 213 209 206 202 193 189 192
216 213 214 184 241 249 259 267 272 299 279 252 260 276 271 315 302 302 309 315 319 315 308 314 306 302 288 281 268 252 235 228 223 219 218 215 214 214 208 205 197 192 195 192
165 161 213 227 244 256 250 271 288 242 252 266 223 248 258 267 273 299 303 302 310 316 312 312 310 306 287 275 265 249 235 231 226 216 213 210 209 207 205 198 195 194 187 181
183 180 197 200 233 256 237 235 191 245 265 265 265 280 282 286 298 302 303 306 307 310 315 309 317 309 301 269 260 247 234 235 218 215 211 207 204 202 200 197 193 186 183 180
243 206 220 190 215 246 221 239 250 251 281 279 274 288 297 291 286 304 306 312 308 308 318 318 320 315 311 278 252 240 237 219 212 210 207 203 201 201 199 195 188 182 182 175
259 237 227 251 254 255 261 275 280 280 270 273 276 283 284 278 286 294 304 300 301 300 314 318 316 314 300 273 234 228 219 215 212 204 198 196 193 190 190 188 185 178 176 180
226 158 233 249 257 270 271 271 271 272 274 276 280 279 276 272 287 292 292 295 296 295 290 304 314 302 286 249 221 210 207 200 192 191 187 183 183 184 182 180 178 178 183 185
253 252 232 251 249 235 263 269 273 276 276 280 280 281 275 277 282 286 287 292 291 281 278 278 274 279 281 224 196 195 199 200 195 185 177 174 172 168 166 170 172 179 181 190
Height
1495 1504 1503 1496 1494 1498 1500 1502 1505 1492 1487 1490 1485 1481 1477 1469 1470 1469 1466 1463 1465 1463 1464 1469 1471 1472 1476 1479 1481 1481 1483 1488 1491 1494 1498 1500 1501 1506 1511 1516 1520 1523 1526 1529
1495 1494 1484 1491 1497 1498 1499 1502 1495 1489 1489 1491 1481 1477 1469 1467 1463 1462 1460 1459 1457 1458 1461 1463 1466 1466 1468 1470 1472 1476 1477 1480 1483 1486 1490 1495 1498 1501 1506 1511 1514 1518 1522 1524
1494 1479 1483 1488 1492 1496 1494 1499 1493 1493 1489 1484 1484 1479 1467 1460 1458 1456 1454 1454 1454 1451 1454 1457 1459 1459 1460 1462 1466 1468 1470 1471 1476 1480 1485 1489 1494 1500 1503 1504 1506 1510 1516 1518
1490 1483 1483 1483 1488 1489 1492 1483 1484 1485 1492 1498 1480 1490 1462 1454 1457 1452 1450 1449 1448 1448 1448 1450 1451 1452 1451 1453 1457 1459 1461 1463 1468 1472 1475 1476 1479 1483 1487 1492 1496 1503 1509 1512
1479 1478 1481 1483 1478 1484 1481 1482 1482 1482 1483 1489 1483 1494 1442 1451 1456 1451 1446 1445 1444 1445 1444 1444 1444 1445 1444 1444 1446 1449 1452 1456 1457 1460 1465 1469 1474 1479 1481 1485 1492 1498 1503 1506
1481 1481 1484 1481 1479 1483 1482 1479 1476 1477 1478 1492 1471 1486 1454 1448 1446 1444 1440 1438 1438 1437 1436 1436 1436 1438 1436 1434 1436 1440 1443 1446 1449 1453 1457 1460 1465 1469 1473 1479 1484 1489 1495 1501
1483 1477 1475 1477 1481 1478 1482 1486 1493 1492 1494 1481 1463 1478 1459 1434 1434 1434 1433 1430 1430 1431 1430 1429 1430 1430 1429 1425 1424 1429 1433 1437 1439 1445 1449 1452 1455 1460 1464 1469 1474 1480 1485 1491
1490 1487 1473 1469 1472 1478 1478 1480 1493 1505 1499 1481 1460 1467 1448 1431 1430 1431 1431 1429 1427 1426 1425 1424 1423 1423 1420 1418 1415 1417 1422 1426 1430 1435 1439 1445 1450 1454 1460 1463 1467 1473 1478 1483
1486 1480 1469 1469 1468 1474 1475 1479 1469 1479 1473 1479 1464 1453 1441 1424 1423 1428 1427 1428 1423 1420 1419 1419 1416 1414 1412 1408 1407 1405 1410 1416 1419 1424 1430 1437 1442 1448 1453 1457 1461 1466 1472 1478
1480 1477 1464 1468 1467 1467 1472 1471 1482 1477 1481 1480 1458 1467 1456 1424 1427 1425 1422 1421 1418 1417 1412 1410 1407 1402 1399 1395 1395 1396 1400 1404 1409 1415 1421 1429 1437 1441 1446 1450 1454 1457 1462 1471
1483 1485 1477 1474 1473 1474 1473 1471 1468 1469 1474 1481 1471 1450 1430 1423 1427 1424 1419 1416 1413 1412 1408 1406 1398 1391 1387 1385 1389 1388 1392 1398 1402 1408 1413 1424 1429 1433 1439 1443 1447 1452 1458 1461
1486 1485 1485 1475 1471 1465 1468 1468 1470 1481 1480 1474 1468 1453 1429 1428 1427 1427 1423 1418 1413 1410 1402 1400 1392 1382 1376 1376 1380 1380 1387 1390 1395 1401 1407 1415 1421 1427 1432 1437 1442 1447 1452 1454
1491 1491 1493 1472 1471 1467 1471 1470 1473 1479 1487 1480 1472 1450 1421 1436 1431 1429 1423 1416 1409 1404 1397 1394 1387 1377 1370 1369 1373 1378 1381 1386 1391 1397 1402 1408 1413 1420 1424 1431 1436 1442 1444 1449
1488 1484 1484 1482 1477 1476 1477 1470 1470 1472 1483 1471 1465 1453 1440 1412 1425 1423 1416 1414 1408 1402 1394 1390 1384 1377 1371 1369 1371 1372 1376 1381 1384 1389 1395 1402 1405 1410 1416 1423 1428 1434 1438 1440
1486 1486 1479 1471 1473 1474 1473 1470 1466 1469 1463 1465 1449 1452 1436 1418 1410 1414 1414 1408 1403 1396 1389 1383 1379 1375 1371 1370 1370 1368 1371 1375 1380 1385 1391 1393 1399 1406 1411 1417 1422 1425 1433 1433
1480 1482 1478 1470 1469 1467 1465 1457 1456 1457 1451 1454 1449 1438 1429 1418 1407 1408 1404 1400 1395 1391 1386 1377 1376 1372 1369 1371 1369 1368 1369 1372 1375 1379 1383 1390 1395 1399 1405 1411 1415 1420 1426 1436
1482 1482 1482 1469 1468 1464 1463 1444 1446 1441 1440 1440 1436 1427 1417 1416 1406 1404 1399 1396 1391 1387 1381 1376 1371 1371 1370 1365 1365 1364 1366 1369 1372 1376 1379 1383 1389 1393 1397 1404 1411 1417 1423 1429
1473 1476 1477 1468 1471 1467 1436 1434 1434 1433 1428 1428 1426 1418 1412 1410 1402 1397 1398 1391 1386 1382 1378 1371 1368 1367 1371 1367 1359 1359 1360 1363 1365 1369 1372 1377 1383 1388 1391 1398 1404 1412 1420 1425
1456 1462 1467 1466 1461 1444 1435 1423 1426 1426 1419 1419 1416 1412 1406 1405 1396 1393 1393 1387 1382 1377 1371 1368 1363 1359 1359 1355 1352 1353 1353 1355 1358 1359 1363 1368 1375 1380 1386 1390 1397 1405 1413 1421
1445 1450 1459 1471 1454 1452 1421 1408 1417 1420 1424 1407 1408 1405 1402 1400 1397 1387 1386 1380 1375 1371 1364 1358 1353 1349 1347 1344 1343 1342 1343 1343 1346 1352 1354 1359 1367 1373 1377 1384 1395 1403 1408 1415
1448 1455 1448 1445 1444 1427 1408 1405 1416 1426 1410 1390 1395 1395 1395 1394 1391 1381 1380 1376 1372 1368 1358 1347 1339 1335 1334 1335 1334 1331 1331 1334 1340 1344 1349 1355 1360 1367 1373 1381 1391 1398 1404 1412
1438 1447 1446 1443 1436 1427 1398 1404 1411 1391 1390 1390 1389 1388 1386 1383 1380 1376 1370 1364 1361 1356 1348 1343 1334 1325 1322 1323 1321 1319 1318 1323 1329 1334 1343 1348 1354 1361 1366 1375 1387 1394 1402 1408
1428 1415 1413 1418 1412 1391 1389 1387 1386 1387 1387 1384 1384 1379 1377 1373 1371 1367 1361 1355 1352 1347 1340 1334 1327 1319 1310 1308 1307 1308 1309 1315 1322 1328 1333 1339 1345 1354 1363 1367 1379 1384 1397 1403
1408 1403 1408 1405 1388 1384 1386 1384 1382 1381 1378 1375 1373 1370 1368 1363 1360 1357 1353 1351 1347 1340 1334 1330 1322 1322 1313 1305 1299 1302 1305 1310 1315 1320 1327 1335 1340 1347 1357 1363 1373 1379 1388 1399
1398 1397 1393 1391 1377 1378 1379 1376 1373 1369 1368 1367 1364 1360 1356 1354 1350 1348 1344 1339 1335 1332 1333 1329 1326 1327 1317 1308 1299 1301 1303 1308 1315 1322 1327 1332 1340 1347 1354 1363 1369 1375 1389 1399
1378 1383 1392 1378 1370 1373 1367 1364 1362 1359 1356 1355 1354 1351 1348 1346 1342 1339 1334 1333 1330 1327 1325 1322 1319 1321 1316 1312 1302 1302 1303 1304 1309 1322 1331 1331 1334 1345 1355 1359 1371 1385 1395 1401